STARLINK-1477, 45754

Orbit data source: Space-Track

STARLINK-1477, 45754 is a payload satellite owned by SpaceX/Seattle (US) in LEO that was launched on Sat, 13 Jun 2020 UTC via an FALCON 9 launch vehicle from the Air Force Eastern Test Range (AFETR). Payload-class satellites include a variety of spacecraft equipped with specific instruments for various scientific and technological missions. These include communications satellites like Starlink; space stations such as the ISS; scientific satellites like the Hubble; Earth observation satellites from companies like Planet Labs, Umbra, and HawkEye 360; GPS; miniature CubeSats for education and research; and military/defense satellites.

Loading next visibility...
Identifier
45754, 2020-038AA
Orbit
LEO
Country
Flag of USUS
Related business
Manufacturer
SpaceX/Seattle
Mission
Partially operational Commercial Communications
Bus & Motor
STARLINK, Unknown motor
Mass
260 kg wet, ~248 kg dry
Launch date (UTC)
2020-06-13 (6 years ago)
Launch vehicle
FALCON 9
Launch site
Air Force Eastern Test Range (AFETR)
Object type
Payload
Rocket body
Debris
Shape & HBR
Box + 1 Pan, 10.1 m
Radar Cross Section
13.562 m², Large (>1 m²)

Expand to show TLE details & history
Last TLE update: 17 hours ago

TLE from 17 hours ago
0 STARLINK-1477
1 45754U 20038AA  26035.28183150  .00036173  00000-0  20715-2 0  9999
2 45754  53.0532   4.5663 0000404  46.3547 313.7478 15.12308492311470
Epoch: 2026-02-04T06:45Z
TLE epoch observation values (Epoch: 2026-02-04T06:45:50.241Z)
Latitude
-0.00003°
Longitude
128.65629°
Altitude
529.85 km
Speed
7.599 km/s
True Right ascension
00h 18m 15s
True Declination
0° 00' 00"
Sunlit
Object was in daylight at epoch
Visualization orbit readout
Latitude
Unknown
Longitude
Unknown
Altitude
Unknown
Speed
Unknown
Apparent Right ascension
Unknown
Apparent Declination
Unknown
Sunlit
N/A
Visualization observer readout
Local Sidereal Time
01:37:56
Azimuth
Unknown
Elevation
Unknown
Doppler factor
Unknown
Orbital elements
Apogee altitude
529.713 km
Perigee altitude
529.154 km
Semi-major axis
6,907.57 km
Eccentricity
0.00004
Inclination
53.0532°
RAAN
4.5663°
Arg. of periapsis
46.3547°
True anomaly
313.74446°
Mean anomaly
313.7478°
Eccentric anomaly
313.74613°
Mean motion
3.78055 °/min
Orbital period
95.22 mins
BSTAR
0.0020715
Loading maneuver chart data...
Computing Atmospheric mass density...

Documentation

Showing up to 5 results
|